Dewpoint
29 29 29 30 29 28 27 29 29 28 28 27 26 26 26 27 28 30 30 30 30 30 30 29 30 30 30 30 30 29 29 29 29 29 29 28 28 28 28 28 28 28 28 28 29 28 28 28 28 28 28 27 27 27 26 27 27 26 26 25 25 26 24 23 21 21 22 21 20 20 18 18 17 19 19 20 17 17 21 16 16 15 15 15 15
28 28 29 27 26 25 25 25 27 27 27 27 25 24 24 25 26 28 29 30 30 30 30 30 30 30 30 30 30 30 29 29 29 28 28 27 27 28 28 28 27 27 27 27 27 28 28 27 27 28 28 27 27 26 26 26 26 26 26 26 25 25 26 24 23 22 22 19 20 14 12 17 17 19 18 18 20 17 16 17 16 16 16 16 16
25 26 28 24 24 23 22 22 23 25 26 23 21 22 22 23 25 25 25 26 27 29 29 29 29 29 29 29 29 30 29 29 29 29 28 28 27 27 27 27 27 27 27 27 27 27 27 27 27 27 27 27 27 27 27 26 26 26 26 26 26 26 26 26 25 24 24 24 24 21 14 14 15 16 18 19 21 19 18 17 17 16 16 15 15
24 26 26 24 23 23 21 20 20 23 20 20 19 19 20 22 22 21 22 23 23 25 27 29 29 28 28 28 28 28 29 29 29 29 28 28 28 27 27 27 27 27 26 27 27 27 27 27 27 27 27 27 27 27 27 27 26 26 26 26 26 26 26 26 26 25 25 24 24 23 21 18 17 14 16 18 19 19 19 19 18 19 16 16 16
23 25 24 23 23 22 20 18 18 22 20 19 17 17 19 20 21 21 21 20 21 23 25 27 27 27 26 27 27 27 27 28 28 28 29 28 28 28 28 27 27 27 27 26 26 26 26 26 26 27 27 26 26 26 27 26 27 26 26 26 26 26 26 26 26 26 24 24 23 23 23 21 19 16 15 15 16 17 19 18 18 18 18 16 16
23 25 23 23 23 20 19 17 18 19 20 18 16 17 18 19 20 21 20 20 20 21 23 24 25 24 25 25 26 26 27 27 27 27 27 28 28 28 28 27 27 27 27 27 26 26 26 26 26 26 26 26 26 26 26 26 26 26 26 26 26 26 26 26 26 25 25 24 24 23 23 22 21 18 14 16 16 16 16 17 17 17 17 16 15
22 23 22 22 22 19 17 16 17 18 17 15 16 17 18 18 19 20 20 19 20 21 22 23 23 23 23 24 24 25 26 26 27 26 26 26 26 26 26 27 27 27 27 27 27 27 26 26 26 26 26 26 26 26 26 26 25 25 25 25 25 25 25 25 25 24 24 23 23 23 23 23 23 22 18 14 15 17 17 18 16 15 15 16 15
21 22 22 21 19 17 16 15 16 18 15 15 15 16 17 18 18 20 19 19 19 21 22 20 19 20 21 22 23 24 25 26 26 26 26 26 25 25 25 25 25 25 25 26 26 26 26 26 26 26 26 26 26 26 26 25 25 24 25 25 25 24 24 24 23 23 23 22 22 21 22 21 21 20 17 15 15 15 15 16 16 17 15 14 14
20 21 20 18 16 15 15 15 15 16 14 14 15 16 17 17 18 18 19 19 20 21 21 20 19 20 22 24 25 25 25 25 25 25 25 25 25 24 25 25 25 24 24 24 24 24 25 25 25 25 25 25 25 26 25 25 25 24 24 24 24 23 23 23 22 22 22 21 21 21 20 20 20 20 18 17 17 18 18 15 14 15 16 15 12
20 19 17 16 14 14 13 13 14 14 14 14 15 16 17 17 17 17 17 17 19 20 21 20 21 21 22 23 25 25 25 24 24 24 24 23 23 24 24 24 24 24 24 24 24 24 23 23 23 23 23 24 24 24 25 25 25 25 24 24 23 23 22 22 22 21 21 20 20 20 19 19 19 19 19 19 19 19 18 16 15 15 15 15 14
21 16 15 14 13 13 11 10 11 12 14 15 15 15 16 15 15 14 15 16 18 19 20 20 20 21 22 23 24 24 22 21 21 21 21 22 22 22 23 23 24 24 24 24 23 23 23 23 23 23 23 23 23 23 23 24 24 24 24 24 24 23 22 22 21 21 21 20 20 20 19 18 19 19 19 19 19 18 17 17 16 16 15 14 14
18 16 14 13 13 12 10 10 11 12 13 14 14 14 14 13 13 15 16 16 16 16 17 18 19 20 22 23 23 21 19 19 20 20 21 22 21 22 22 23 23 24 24 24 23 23 23 23 23 22 22 22 22 22 22 22 23 23 24 24 24 24 24 23 22 21 21 20 20 19 19 18 18 18 18 18 18 18 17 17 16 16 15 14 14
17 14 13 12 13 11 10 10 12 12 13 13 13 12 11 12 14 16 15 15 14 13 13 16 18 18 17 17 19 20 18 19 19 20 21 21 22 21 21 22 22 23 24 24 24 23 23 22 22 22 21 21 22 22 22 21 22 22 23 23 23 23 24 24 24 23 22 21 20 19 18 18 18 18 18 18 19 18 17 16 16 16 15 14 14
15 14 13 12 12 12 10 11 11 12 12 11 10 9 9 12 14 15 14 14 14 14 13 14 15 14 14 14 14 15 15 17 18 19 19 21 21 20 20 21 21 22 23 23 23 23 23 22 22 21 21 21 20 21 21 21 21 21 21 21 21 22 22 22 22 23 23 22 20 19 19 19 18 18 19 19 18 17 17 16 16 15 15 14 15
14 14 12 11 11 12 10 10 11 11 11 10 9 8 10 12 14 14 13 12 13 14 15 13 11 11 11 11 11 11 12 16 16 17 17 19 19 18 18 18 19 20 21 22 22 22 22 22 22 21 21 20 20 20 20 20 20 20 19 19 20 20 20 21 21 21 21 22 21 21 20 20 19 19 18 19 18 18 18 17 16 16 15 13 12
14 13 12 11 12 11 10 10 11 11 11 9 7 8 10 12 13 12 11 10 11 12 14 14 11 9 9 9 8 9 10 14 15 15 15 17 17 16 16 16 16 18 19 20 21 22 22 22 21 21 20 20 20 20 20 20 20 19 18 18 18 19 19 20 21 22 21 21 21 21 21 20 20 18 18 18 18 18 17 16 15 15 14 12 12
14 13 12 12 12 11 10 10 11 11 11 8 6 7 8 9 10 10 8 8 8 10 12 15 12 8 7 7 6 7 8 11 13 13 14 16 16 16 15 15 15 15 16 18 19 20 21 21 21 20 20 19 20 20 20 20 19 18 17 17 17 17 17 19 20 21 21 22 22 23 22 22 22 22 22 20 19 18 16 15 14 14 13 10 11
14 12 11 12 11 10 11 11 10 10 8 6 5 6 6 7 8 9 7 6 7 8 12 14 11 7 6 6 7 7 6 9 13 13 13 14 15 15 15 14 14 14 14 15 16 16 17 20 20 20 19 19 19 19 20 19 18 17 17 16 16 15 16 17 17 18 20 20 20 20 21 21 21 22 22 22 20 19 16 13 14 14 12 12 10
13 12 11 12 10 10 10 11 10 8 5 5 4 4 5 6 7 7 6 3 5 8 12 12 8 6 5 6 9 7 5 8 11 12 13 13 13 13 13 13 12 12 13 13 14 14 15 17 19 19 19 19 19 19 19 19 18 17 16 16 15 14 15 16 15 14 15 16 17 18 18 19 19 19 19 20 20 20 18 16 15 14 12 12 12
13 12 12 11 11 10 10 10 10 8 5 3 3 4 5 5 5 5 5 4 4 6 9 9 5 4 5 5 5 4 4 5 9 12 12 13 13 12 11 11 11 11 12 12 12 12 13 14 16 18 19 19 19 19 19 19 18 17 16 15 14 13 15 15 14 14 14 14 14 14 14 15 16 16 17 17 17 18 19 18 16 15 13 12 12
12 12 11 10 9 10 10 10 10 7 3 2 2 3 3 4 4 3 2 3 3 6 7 6 4 4 5 5 4 4 4 6 8 11 12 13 13 12 11 11 11 12 12 12 11 12 12 13 14 16 17 18 18 19 19 19 19 18 17 15 15 15 15 14 14 14 13 12 12 12 13 13 13 14 15 15 15 16 17 17 17 16 14 13 12
12 11 10 9 9 9 9 10 10 7 3 2 1 2 3 2 3 -0 0 3 5 6 6 7 6 7 7 7 4 5 6 9 7 10 12 12 12 13 12 11 12 12 12 11 11 11 12 13 13 15 16 17 18 18 18 19 18 18 17 17 17 16 15 13 13 13 12 11 11 11 11 11 11 12 13 13 14 15 16 17 17 17 16 15 13
11 10 9 8 9 9 9 8 8 4 2 2 -1 0 2 0 0 0 2 4 6 6 5 5 6 7 8 8 6 6 5 6 10 9 11 12 12 13 13 13 13 12 12 11 11 11 12 12 13 15 16 17 17 18 18 18 18 18 18 18 17 17 15 12 11 11 10 10 9 9 9 9 10 10 11 12 13 15 15 15 15 15 12 10 10
10 10 9 8 7 8 8 6 3 1 -0 1 -0 -0 1 -0 0 -0 2 5 7 6 5 5 6 7 7 8 8 8 7 5 8 10 10 11 12 12 13 13 12 12 12 12 12 12 12 13 14 16 17 17 17 17 17 17 17 17 17 18 17 16 13 11 10 10 9 8 7 8 8 8 9 9 10 11 12 13 14 13 12 12 11 9 9
10 8 7 7 7 7 7 5 1 -0 -2 -2 -2 0 -0 -1 0 -0 1 3 6 6 6 7 6 7 7 7 8 9 9 9 8 9 10 11 12 12 13 13 12 12 12 12 13 13 14 15 16 17 17 17 16 16 16 15 16 16 17 16 16 14 12 10 9 9 7 7 7 7 7 8 9 9 10 10 10 11 9 8 8 8 8 7 6
9 8 7 7 6 6 5 3 0 -1 -2 -1 -2 -2 -2 0 0 2 -1 0 4 6 6 7 7 6 6 7 7 8 8 9 9 9 10 11 12 12 12 12 12 12 13 12 13 14 14 15 16 16 16 15 15 13 13 13 14 15 15 16 14 13 11 10 9 8 6 5 6 6 7 7 8 9 9 10 9 9 8 6 6 5 6 6 5
8 7 7 6 4 4 4 3 2 1 -3 -3 -2 -2 -1 -1 1 3 2 2 3 5 5 5 4 5 5 6 6 7 8 8 9 10 11 11 11 11 11 10 12 12 12 12 12 13 14 14 15 15 15 15 14 14 13 13 13 13 13 13 12 12 11 10 8 8 7 6 6 5 5 5 7 8 8 8 8 8 8 7 7 5 3 4 4
4 3 5 4 3 2 2 7 4 -1 -2 -3 -3 -2 -2 -1 2 4 4 4 3 2 0 1 1 2 4 5 6 6 7 8 10 10 10 9 10 10 10 10 10 10 10 11 12 13 13 13 12 12 11 10 10 10 9 10 10 11 11 11 10 10 11 11 10 8 7 7 6 5 5 5 5 6 7 7 7 7 7 6 6 3 3 2 -1
3 -0 1 -1 -1 3 2 1 -1 -2 -3 -3 -4 -3 -2 -0 4 5 2 -0 -1 2 1 1 2 -1 -0 2 3 5 7 8 10 10 10 10 10 9 9 10 9 9 10 11 11 12 11 10 9 9 8 8 8 7 7 8 8 9 8 8 7 7 8 9 8 7 7 6 5 3 3 5 5 5 6 6 6 6 6 6 4 4 -0 1 3
-0 -2 -1 -2 -2 -1 -0 -1 -3 -2 -4 -4 -3 -2 5 7 8 5 3 7 9 9 9 3 4 4 3 2 2 5 6 9 10 10 10 10 10 10 11 11 10 9 10 12 11 10 7 7 7 7 7 7 7 6 7 7 7 7 6 9 8 7 7 7 6 7 7 6 5 3 3 5 5 5 5 4 4 4 4 5 2 2 -1 -1 -0
0 -1 -0 -1 -0 -0 -0 -3 -4 -5 -6 -6 -5 -2 1 5 9 9 9 9 9 9 9 9 9 9 8 5 5 9 9 10 10 9 10 10 10 10 10 10 10 10 11 12 11 8 5 4 4 5 7 6 6 7 7 6 6 7 7 7 7 7 7 7 6 5 5 5 4 5 5 5 4 4 3 3 3 2 1 2 1 1 1 -1 -2
-0 -0 -2 -3 -1 1 -3 -4 -3 -4 -5 -7 -6 -3 1 4 3 7 8 8 8 9 9 8 8 8 8 8 8 4 8 9 9 9 10 10 9 10 10 10 10 9 11 11 8 5 1 -0 1 3 5 5 6 6 7 6 7 7 7 6 6 6 7 7 6 5 4 4 4 3 3 3 3 2 3 3 2 1 1 -1 -1 -1 -1 -3 -2
-1 -2 -5 -4 -3 -1 -2 -3 -3 -5 -6 -6 -6 -4 0 3 3 3 3 7 8 8 8 7 7 7 7 8 8 8 9 10 10 10 11 10 10 10 11 10 8 8 10 6 4 4 1 0 1 2 2 4 5 6 7 7 6 6 7 6 6 5 6 6 6 5 4 4 3 3 2 2 2 1 1 1 1 0 -0 -1 -1 -1 -2 -3 -4
0 -0 -3 -3 -4 -5 -5 -6 -6 -6 -7 -8 -7 -5 -1 0 1 2 2 2 1 5 7 7 6 7 6 7 7 8 8 9 10 10 10 10 10 10 10 6 7 7 7 2 3 3 2 1 2 3 3 5 6 7 6 6 6 6 6 6 5 5 5 3 4 4 3 3 2 0 0 2 1 1 0 0 0 -1 -1 -1 -1 -2 -4 -4 -4
-6 -4 2 3 -4 -4 -5 -6 -7 -7 -7 -5 -5 -3 -1 -0 1 1 1 1 1 1 1 2 5 6 5 6 7 7 8 9 9 10 10 9 9 9 8 -0 -0 0 2 -1 1 -0 1 2 3 5 6 6 7 7 7 6 6 5 5 5 4 2 1 1 3 3 3 2 1 1 1 1 1 1 1 -1 -1 -1 -1 -2 -2 -3 -6 -7 -6
-4 -4 -5 -2 -2 -3 -5 -6 -6 -6 -6 -5 -5 -1 1 0 -0 -1 -1 -2 -1 -0 2 1 -1 4 5 6 6 6 7 8 9 9 8 8 8 7 -1 0 -1 -2 -1 -2 -1 1 1 2 3 4 5 6 7 7 6 6 6 5 4 2 2 1 1 0 -0 0 0 1 1 0 -1 -2 -2 -1 -0 0 -0 -1 -1 -2 -4 -5 -5 -3 -3
-2 -2 -3 -5 -5 -6 -6 -6 -5 -4 1 1 0 -2 -2 -1 -0 -2 -3 -3 -1 0 1 1 0 -2 2 1 4 5 6 8 8 8 7 6 6 1 -4 -3 -3 -2 -1 -2 -1 0 0 1 1 2 4 5 5 6 6 5 5 3 2 1 0 -1 -1 -1 -2 -2 -3 -3 -3 -4 -3 -3 -5 -4 -2 -1 -3 -3 -3 -3 -4 -4 -5 -4 -5
1 1 -0 -3 -5 -5 -5 -4 -3 2 2 1 -1 -2 -1 -2 -2 -2 -1 -0 1 1 -0 -2 1 -2 -2 -1 3 3 6 7 7 4 4 4 1 -2 -2 -3 -2 -2 -1 -1 -1 -2 -0 0 -0 1 3 4 4 4 4 4 3 2 2 -0 -3 -3 -1 -4 -4 -6 -6 -5 -6 -9 -10 -8 -6 -5 -4 -3 -3 -4 -5 -5 -4 -3 -4 -5 -5
-2 -0 2 3 3 -1 -2 -1 0 0 1 1 -1 -0 0 -1 -2 -3 -2 -2 -1 -1 -2 -5 -5 -3 -2 -2 -2 3 6 3 1 0 -0 -0 -1 -4 -4 -4 -3 -2 -2 -1 -0 -0 -1 -0 0 -1 0 1 2 3 3 4 2 1 -1 -2 -2 -3 -4 -6 -6 -4 -4 -3 -3 -7 -7 -6 -5 -4 -3 -3 -2 -2 -1 -1 -2 -2 -1 -2 -4
1 0 2 4 2 2 2 2 1 1 2 0 -1 -2 -2 -2 -3 -2 -2 -2 -1 -2 -4 -4 -4 -4 -2 -4 -1 4 4 3 2 1 1 2 2 0 -4 -3 -3 -2 -1 0 1 0 0 1 0 -2 -1 -1 1 3 3 2 2 2 0 -1 -0 -1 -1 -3 -2 -2 -1 -1 -2 -3 -4 -5 -6 -7 -7 -4 -2 -1 0 -0 -2 -3 -3 -4 -4
3 2 2 2 3 1 1 1 1 1 0 0 -0 -1 -2 -1 -1 -1 -3 -3 -2 -3 -3 -3 -4 -4 -3 1 4 5 3 1 -0 -1 -0 1 1 -2 -2 -2 -2 -1 -0 -0 1 2 3 3 3 2 -0 -0 0 -1 0 1 1 -0 0 1 -0 -2 -1 -2 -1 -0 -0 -2 -3 -4 -5 -6 -7 -8 -8 -7 -5 -3 -4 -6 -7 -9 -9 -9 -9
2 2 1 1 1 1 0 1 1 2 1 1 0 -1 -1 -1 -2 -2 -2 -2 -2 -2 -1 -3 -5 -4 -1 2 3 4 1 -3 -5 -3 -2 -2 -3 -2 -0 -1 -2 -2 -1 -0 1 4 5 5 4 2 1 1 0 -1 -2 -1 -1 -1 -0 -1 0 -1 -3 -1 -2 -3 -3 -3 -6 -8 -9 -7 -7 -7 -6 -5 -8 -7 -8 -10 -10 -12 -14 -13 -15
4 4 3 1 1 1 2 2 1 -1 -1 -1 -0 0 0 -1 -1 -2 -2 -1 -1 -1 -2 -2 -3 -4 -3 1 2 2 -3 -5 -3 -3 -4 -3 -2 -3 -1 -0 0 0 0 1 2 3 4 4 4 3 2 2 1 0 0 1 -0 0 -1 -3 -3 -2 -2 -2 -5 -7 -9 -10 -9 -9 -9 -10 -9 -8 -8 -10 -10 -12 -12 -14 -15 -16 -15 -16 -16
5 4 3 2 2 1 1 1 1 1 -0 1 0 -0 0 -1 -1 -2 -2 -2 -2 -3 -2 -2 -2 -3 -4 -3 -2 -4 -6 -5 -6 -5 -3 -2 -2 -1 -1 -0 0 1 1 2 3 2 1 3 3 3 0 -0 -0 -2 -1 1 -0 -1 -1 -1 -3 -4 -4 -5 -5 -5 -7 -9 -9 -11 -12 -13 -13 -14 -13 -12 -13 -13 -14 -17 -17 -16 -17 -19 -20
5 4 4 3 2 1 1 1 1 1 1 0 -1 -2 -1 -2 -2 -1 -2 -1 -1 -1 -2 -2 -2 -3 -4 -5 -6 -6 -5 -6 -4 -3 -3 -2 -2 -1 -1 -1 -0 0 1 2 4 4 3 3 1 -0 0 1 -0 -2 -2 -1 -1 -0 -1 0 -1 -0 -0 -2 -2 -4 -6 -9 -8 -10 -11 -13 -13 -13 -13 -14 -15 -15 -14 -15 -14 -15 -17 -17 -19
5 5 4 4 3 2 2 1 1 1 1 1 0 -1 -2 -4 -3 -3 -1 -1 -1 -1 -2 -3 -4 -4 -3 -4 -5 -4 -3 -4 -2 -1 1 1 1 1 -0 -0 -0 -0 1 2 3 3 4 3 3 3 3 2 1 0 -1 -3 -4 -4 -4 -3 -0 1 1 -0 -4 -7 -7 -7 -6 -7 -9 -12 -11 -11 -12 -12 -15 -14 -13 -15 -17 -15 -14 -15 -16
5 5 5 4 4 3 3 3 1 1 0 1 1 0 0 -1 -2 -1 -1 0 0 -2 -1 -3 -5 -4 -3 -4 -4 -4 -3 -2 -1 0 1 1 1 1 1 0 -1 -0 1 2 2 3 2 3 2 2 2 2 2 1 1 -0 -2 -3 -5 -5 -3 -3 -2 -3 -4 -4 -5 -5 -6 -8 -8 -9 -9 -12 -11 -13 -16 -15 -16 -14 -14 -15 -15 -15 -15
5 4 4 4 4 3 3 2 2 2 2 2 1 1 0 -1 -2 -1 -3 -2 -2 -3 -3 -3 -4 -3 -3 -2 -3 -3 -3 -3 -2 -1 -0 0 1 1 1 -1 -1 -0 1 2 1 1 1 1 1 1 2 3 2 2 2 1 -0 -2 -4 -6 -5 -4 -4 -7 -7 -8 -7 -7 -8 -7 -7 -6 -8 -9 -12 -13 -13 -13 -15 -13 -16 -17 -17 -17 -18
5 4 4 3 4 4 4 3 3 2 2 2 1 1 -1 -2 -2 -3 -3 -3 -2 -3 -4 -3 -3 -3 -3 -2 -3 -3 -3 -2 -3 -3 -2 -1 -1 -1 -2 -2 -1 1 3 3 4 2 2 2 1 1 1 0 1 1 2 1 1 -0 -2 -3 -3 -7 -9 -10 -10 -8 -9 -8 -9 -9 -10 -9 -9 -10 -11 -13 -12 -12 -12 -13 -16 -15 -18 -19 -19
5 5 4 4 4 4 4 4 4 3 2 2 1 1 0 -1 -2 -2 -2 -3 -4 -4 -4 -3 -3 -3 -3 -3 -4 -3 -4 -3 -3 -3 -2 -2 -3 -4 -3 -2 -0 2 3 3 3 3 3 3 3 3 2 1 0 0 0 1 1 1 -0 -0 -5 -7 -9 -10 -11 -11 -10 -11 -10 -10 -9 -9 -9 -9 -10 -11 -13 -14 -14 -13 -14 -16 -16 -16 -17
5 5 4 4 4 4 3 3 3 3 2 2 1 1 1 0 -0 -1 -2 -3 -2 -2 -2 -3 -4 -4 -5 -4 -4 -4 -3 -3 -3 -3 -3 -4 -4 -4 -4 -3 -1 1 2 2 2 2 2 2 4 4 4 3 3 2 2 1 0 1 -2 -4 -5 -7 -8 -10 -8 -11 -12 -12 -11 -10 -10 -10 -10 -10 -11 -12 -14 -14 -13 -14 -15 -15 -15 -15 -16